This is the latest recevied weather packets stored in our database for station/object KC3AWA. If no packets are shown the sender has not sent any weather packets the latest 10 day(s).
| Time | Temp. | Humidity | Pressure | Rain* | Wind** | Luminosity | Snow |
|---|---|---|---|---|---|---|---|
| 1777474689 | 12.78° C | 96% | 1010.6 hPa | 0 mm | - | 202 W/m² | - |
| 1777474385 | 12.78° C | 96% | 1010.6 hPa | 0 mm | - | 232 W/m² | - |
| 1777474082 | 12.78° C | 96% | 1010.4 hPa | 0 mm | - | 142 W/m² | - |
| 1777473780 | 12.78° C | 96% | 1010.5 hPa | 0 mm | - | 195 W/m² | - |
| 1777473476 | 12.78° C | 96% | 1010.6 hPa | 0 mm | - | 187 W/m² | - |
| 1777473172 | 12.78° C | 96% | 1010.9 hPa | 0 mm | - | 144 W/m² | - |
| 1777472869 | 12.22° C | 96% | 1010.9 hPa | 0 mm | - | 151 W/m² | - |
| 1777472564 | 12.22° C | 96% | 1011 hPa | 0 mm | - | 128 W/m² | - |
| 1777472262 | 12.22° C | 96% | 1011 hPa | 0 mm | - | 105 W/m² | - |
| 1777471958 | 12.78° C | 96% | 1011.2 hPa | 0 mm | - | 69 W/m² | - |
| 1777471655 | 12.78° C | 96% | 1011 hPa | 0 mm | - | 86 W/m² | - |
| 1777471352 | 12.22° C | 96% | 1011 hPa | 0 mm | - | 98 W/m² | - |
| 1777471048 | 12.22° C | 96% | 1011.4 hPa | 0 mm | - | 112 W/m² | - |
| 1777470745 | 12.22° C | 96% | 1011.6 hPa | 0 mm | - | 87 W/m² | - |
| 1777470441 | 12.22° C | 96% | 1011.6 hPa | 0 mm | - | 110 W/m² | - |
| 1777470138 | 12.22° C | 96% | 1011.5 hPa | 0 mm | - | 110 W/m² | - |
| 1777469834 | 11.67° C | 96% | 1011.4 hPa | 0 mm | - | 91 W/m² | - |
| 1777469530 | 11.67° C | 96% | 1011.3 hPa | 0 mm | - | 52 W/m² | - |
| 1777469225 | 11.67° C | 96% | 1010.8 hPa | 0 mm | - | 47 W/m² | - |
| 1777468925 | 11.67° C | 96% | 1010.9 hPa | 0 mm | - | 40 W/m² | - |
| 1777468621 | 11.67° C | 95% | 1010.5 hPa | 1.78 mm | - | 53 W/m² | - |
| 1777468318 | 11.67° C | 95% | 1010.5 hPa | 1.78 mm | - | 46 W/m² | - |
| 1777468014 | 11.67° C | 95% | 1010.7 hPa | 0 mm | - | 38 W/m² | - |
| 1777467710 | 11.67° C | 95% | 1011.3 hPa | 0 mm | - | 41 W/m² | - |
| 1777467406 | 11.67° C | 95% | 1011.4 hPa | 0 mm | - | 41 W/m² | - |
* Rain latest hour (hover to see other rain measurements)
** Current wind speed in m/s (hover to see current wind gust speed)